TimePST,TemperatureF,Dew PointF,Humidity,Sea Level PressureIn,VisibilityMPH,Wind Direction,Wind SpeedMPH,Gust SpeedMPH,PrecipitationIn,Events,Conditions,WindDirDegrees,DateUTC
12:53 AM,42.1,39.9,92,29.52,4.0,ENE,5.8,-,0.00,,Mostly Cloudy,60,2012-12-01 08:53:00
1:01 AM,42.8,39.2,87,29.51,5.0,East,4.6,-,N/A,,Scattered Clouds,100,2012-12-01 09:01:00
1:53 AM,42.1,39.9,92,29.55,4.0,WNW,8.1,-,0.01,Rain,Light Rain,300,2012-12-01 09:53:00
2:00 AM,42.8,41.0,93,29.56,4.0,WNW,5.8,-,0.01,Rain,Light Rain,290,2012-12-01 10:00:00
2:07 AM,42.8,41.0,93,29.57,4.0,NNW,4.6,-,0.01,Rain,Light Rain,330,2012-12-01 10:07:00
3:53 AM,44.1,41.0,89,29.58,7.0,NNW,3.5,-,N/A,,Mostly Cloudy,330,2012-12-01 11:53:00
4:53 AM,42.1,41.0,96,29.61,4.0,Variable,3.5,-,N/A,,Overcast,0,2012-12-01 12:53:00
5:53 AM,46.0,43.0,89,29.66,7.0,NNE,3.5,-,0.02,Rain,Light Rain,20,2012-12-01 13:53:00
7:53 AM,48.9,36.0,61,29.71,10.0,West,4.6,-,N/A,,Overcast,260,2012-12-01 15:53:00
8:53 AM,48.9,37.9,66,29.74,10.0,NNW,12.7,-,N/A,,Mostly Cloudy,330,2012-12-01 16:53:00
9:53 AM,53.1,39.0,59,29.75,10.0,South,4.6,-,N/A,,Partly Cloudy,190,2012-12-01 17:53:00
10:53 AM,54.0,37.9,55,29.75,10.0,Calm,Calm,-,N/A,,Clear,0,2012-12-01 18:53:00
11:53 AM,55.0,36.0,49,29.73,10.0,Calm,Calm,-,N/A,,Mostly Cloudy,0,2012-12-01 19:53:00
12:53 PM,55.0,39.0,55,29.70,10.0,NNW,5.8,-,N/A,,Clear,330,2012-12-01 20:53:00
1:53 PM,54.0,39.0,57,29.68,10.0,NW,5.8,-,N/A,,Clear,320,2012-12-01 21:53:00
2:53 PM,54.0,41.0,62,29.66,10.0,Calm,Calm,-,N/A,,Overcast,0,2012-12-01 22:53:00
3:53 PM,51.1,41.0,68,29.66,10.0,NW,8.1,-,N/A,,Overcast,310,2012-12-01 23:53:00
4:53 PM,50.0,39.9,68,29.65,10.0,Calm,Calm,-,N/A,,Partly Cloudy,0,2012-12-02 00:53:00
5:53 PM,48.9,41.0,74,29.62,10.0,Calm,Calm,-,N/A,,Overcast,0,2012-12-02 01:53:00
6:53 PM,46.9,41.0,80,29.60,10.0,Calm,Calm,-,N/A,,Mostly Cloudy,0,2012-12-02 02:53:00
7:53 PM,46.9,42.1,83,29.58,10.0,NW,3.5,-,0.00,,Overcast,320,2012-12-02 03:53:00
8:53 PM,46.9,43.0,86,29.56,10.0,West,3.5,-,N/A,,Overcast,260,2012-12-02 04:53:00
9:53 PM,46.0,43.0,89,29.51,10.0,Calm,Calm,-,0.00,,Overcast,0,2012-12-02 05:53:00
10:53 PM,46.0,43.0,89,29.46,10.0,NW,4.6,-,0.00,Rain,Light Rain,310,2012-12-02 06:53:00
11:53 PM,45.0,43.0,93,29.39,6.0,Calm,Calm,-,0.05,Rain,Light Rain,0,2012-12-02 07:53:00